Weather Roundup
Issued by NWS Springfield, MO

Home | Current Version | Previous Version | Text Only | Print | Product List | Glossary On
Versions: 1 2 3 4 5 6 7 8 9 10 11 12 13 14 15 16 17 18 19 20 21 22 23 24 25 26 27 28 29 30 31 32 33 34 35 36 37 38 39 40 41 42 43 44 45 46 47 48 49 50
363
NZUS99 KSGF 241757
HRRSGF

HOURLY WEATHER
NATIONAL WEATHER SERVICE SPRINGFIELD MO
100 PM CDT FRI MAR 24 2017

......SGF CWA......

CITY           SKY/WX    TMP DP  RH WIND       PRES   REMARKS
SPRINGFIELD    CLOUDY    63  57  81 S14       29.95S
6HR MIN TEMP:  61; 6HR MAX TEMP:  71; 6HR PCP:  0.03;

JOPLIN         CLOUDY    65  56  72 S25G37    29.89S
6HR MIN TEMP:  61; 6HR MAX TEMP:  68; 6HR PCP:  0.10;

WEST PLAINS    PTSUNNY   70  54  56 S18G28    30.04F
6HR MIN TEMP:  60; 6HR MAX TEMP:  70;

ROLLA          CLOUDY    71  52  50 S26G32    29.97S
6HR MIN TEMP:  62; 6HR MAX TEMP:  74;

BRANSON        CLOUDY    68  50  52 S17G31    29.99F

......SURROUNDING SGF CWA......

CITY           SKY/WX    TMP DP  RH WIND       PRES   REMARKS
CHANUTE        CLOUDY    67  55  65 S24G32    29.85S
PARSONS        CLOUDY    67  56  67 S16G28    29.86R
COFFEYVILLE    CLOUDY    67  57  70 S22G36    29.85R
EMPORIA        CLOUDY    69  55  60 S18       29.80S
HARRISON AR    CLOUDY    67  53  61 S14G29    30.00F

......KANSAS AND MISSOURI......

CITY           SKY/WX    TMP DP  RH WIND       PRES   REMARKS
KANSAS CTY INT CLOUDY    63  56  78 CALM      29.87F
SEDALIA          N/A     71  47  42 S17G26    29.91S THUNDER
ST JOSEPH      LGT RAIN  59  56  89 SE7       29.89R
ST LOUIS       PTSUNNY   79  54  41 S22G31    29.98S
WICHITA        MOSUNNY   74  40  29 S17       29.75F
TOPEKA         PTSUNNY   68  55  63 S14       29.82F
OLATHE         CLOUDY    67  55  65 S15G24    29.85F

......TENNESSEE......

CITY           SKY/WX    TMP DP  RH WIND       PRES   REMARKS
MEMPHIS        CLOUDY    74  58  57 S21G26    30.17F
NASHVILLE      PTSUNNY   74  53  48 S18G25    30.25F

......ARKANSAS.......

CITY           SKY/WX    TMP DP  RH WIND       PRES   REMARKS
FAYETTEVILLE   CLOUDY    68  57  68 S18G28    29.93F
FT SMITH       CLOUDY    71  52  50 S13       29.91F
LITTLE ROCK    CLOUDY    73  60  63 S18G31    30.06F

......OKLAHOMA.......

CITY           SKY/WX    TMP DP  RH WIND       PRES   REMARKS
TULSA          CLOUDY    70  57  63 S18G32    29.79F
PONCA CITY     CLOUDY    71  53  52 S10G24    29.76S
MCALESTER      LGT RAIN  64  60  87 SE10G18   29.86F FOG
OKLAHOMA CITY  MOSUNNY   76  35  22 S22G35    29.73F

......IOWA............

CITY           SKY/WX    TMP DP  RH WIND       PRES   REMARKS
DES MOINES     NOT AVBL
QUAD CITIES    SUNNY     78  43  28 SW17G30   29.87S

......ILLINOIS........

CITY           SKY/WX    TMP DP  RH WIND       PRES   REMARKS
QUINCY         NOT AVBL
CHICAGO        MOSUNNY   79  43  27 SW25G35   29.89F




USA.gov is the U.S. government's official web portal to all federal, state and local government web resources and services.